sat.trackr.live / text

‹ back to catalog

STARLINK-35970

NORAD 66618 · 2025-271B

PAYLOAD ACTIVE UNKNOWN

§ Identity

Operator
Country
US
Launch date
2025-11-23
Launch site
AFWTR
Launch vehicle
Mass (kg)
RCS (m²)

Purposes: comms

External: N2YO · Heavens-Above · Gunter

§ Orbital elements

Epoch: 2026-09-20T10:11:49.092864Z

Period
93.85 min
Inclination
53.1583°
Eccentricity
0.0000751
Mean motion
15.34405949 rev/d
Perigee alt
462.2 km
Apogee alt
463.2 km
Semi-major
6,840.8 km
B*
4.0964e-4
RAAN
313.8343°
Arg perigee
59.1538°
Mean anomaly
300.9539°
Rev number
4,740

§ Raw data

STARLINK-359701 66618U 25271B   26263.42487376  .00013492  00000+0  40964-3 0  99982 66618  53.1583 313.8343 0000751  59.1538 300.9539 15.34405949 47401

JSON: /api/v1/satellites/66618 · /tle

For live sub-satellite position, see the globe view (requires WebGL).

§ Visibility from observer

Set your observer location to see the next 7 days of passes ≥ 10°. The values pass through the URL so the page stays shareable.

No JS? Fill the form by hand. The geolocation button needs JavaScript.